Camp Point, IL

11:27 AM CST on February 25, 2017 (GMT -0600)
Quincy Regional-Baldwin

Weather History for KUIN - October, 2012

Change the Weather History Date:

Saturday, October 6, 2012

  Actual Average Record
Temperature  
Mean Temperature 40 °F 58 °F  
Max Temperature 46 °F 69 °F 94 °F (1963)
Min Temperature 34 °F 47 °F 24 °F (1952)
Degree Days  
Heating Degree Days 25 8  
Month to date heating degree days 67 44  
Since 1 July heating degree days 152 131  
Cooling Degree Days 0 1  
Month to date cooling degree days 0 7  
Year to date cooling degree days 1552 1083  
Moisture  
Dew Point 30 °F    
Average Humidity 71    
Maximum Humidity 89    
Minimum Humidity 53    
Precipitation  
Precipitation 0.00 in 0.10 in 1.16 in (1948)
Month to date precipitation 0.59 0.62  
Year to date precipitation 19.15 29.67  
Sea Level Pressure  
Sea Level Pressure 30.26 in    
Wind  
Wind Speed 8 mph (NW)    
Max Wind Speed 20 mph    
Max Gust Speed 25 mph    
Visibility 10 miles    
Events      
T = Trace of Precipitation, MM = Missing Value Source: NWS Daily Summary

Daily Weather History Graph

Daily Weather History Graph

Search for Another Location

Airport or City:

Trip Planner

Search our weather history database for the weather conditions in past years. The results will help you decide how hot, cold, wet, or windy it might be!

Date:

Astronomy

Oct. 06, 2012 Rise Set
Actual Time 7:06 AM CDT 6:38 PM CDT
Civil Twilight 6:39 AM CDT 7:05 PM CDT
Nautical Twilight 6:08 AM CDT 7:36 PM CDT
Astronomical Twilight 5:36 AM CDT 8:07 PM CDT
Moon 10:54 PM CDT (10/6) 1:00 PM CDT (10/6)
Length of Visible Light 12h 25m
Length of Day
11h 31m
Waning Gibbous, 65% of the Moon is Illuminated
Oct 6
Waning Gibbous
Oct 8
Last Quarter
Oct 15
New
Oct 21
First Quarter
Oct 29
Full

Hourly Weather History & Observations

Time (CDT) Temp. Windchill Dew Point Humidity Pressure Visibility Wind Dir Wind Speed Gust Speed Precip Events Conditions
12:54 AM 37.0 °F 31.6 °F 32.0 °F 82% 30.21 in 10.0 mi West 6.9 mph - N/A   Clear
1:54 AM 36.0 °F 29.6 °F 32.0 °F 86% 30.22 in 10.0 mi WNW 8.1 mph - N/A   Clear
2:54 AM 36.0 °F 28.5 °F 30.9 °F 82% 30.22 in 10.0 mi NW 10.4 mph - N/A   Clear
3:54 AM 35.1 °F 28.6 °F 30.0 °F 82% 30.23 in 10.0 mi NW 8.1 mph - N/A   Clear
4:54 AM 35.1 °F 30.1 °F 30.0 °F 82% 30.25 in 10.0 mi NW 5.8 mph - N/A   Clear
5:54 AM 35.1 °F 31.0 °F 28.9 °F 78% 30.25 in 10.0 mi WNW 4.6 mph - N/A   Clear
6:54 AM 35.1 °F 30.1 °F 28.9 °F 78% 30.27 in 10.0 mi NW 5.8 mph - N/A   Clear
7:54 AM 36.0 °F 31.1 °F 28.9 °F 76% 30.27 in 10.0 mi WNW 5.8 mph - N/A   Clear
8:54 AM 37.9 °F 30.9 °F 28.0 °F 68% 30.27 in 10.0 mi NW 10.4 mph - N/A   Clear
9:54 AM 41.0 °F 34.7 °F 28.9 °F 62% 30.28 in 10.0 mi NNW 10.4 mph - N/A   Clear
10:54 AM 42.1 °F 34.2 °F 28.0 °F 58% 30.29 in 10.0 mi NW 16.1 mph 25.3 mph N/A   Clear
11:54 AM 44.1 °F 37.4 °F 28.0 °F 53% 30.28 in 10.0 mi NW 13.8 mph 24.2 mph N/A   Clear
12:54 PM 45.0 °F 38.5 °F 28.9 °F 53% 30.28 in 10.0 mi NW 13.8 mph - N/A   Clear
1:54 PM 45.0 °F 38.2 °F 28.0 °F 52% 30.26 in 10.0 mi NW 15.0 mph - N/A   Clear
2:54 PM 45.0 °F 38.5 °F 28.9 °F 53% 30.25 in 10.0 mi NNW 13.8 mph - N/A   Clear
3:54 PM 44.1 °F 37.4 °F 28.9 °F 55% 30.25 in 10.0 mi NW 13.8 mph - N/A   Clear
4:54 PM 44.1 °F 38.1 °F 28.9 °F 55% 30.25 in 10.0 mi NNW 11.5 mph - N/A   Mostly Cloudy
5:54 PM 43.0 °F 38.2 °F 28.9 °F 58% 30.25 in 10.0 mi NW 8.1 mph - N/A   Scattered Clouds
6:54 PM 42.1 °F 40.2 °F 30.0 °F 62% 30.25 in 10.0 mi West 3.5 mph - N/A   Overcast
7:54 PM 42.1 °F - 30.9 °F 65% 30.25 in 10.0 mi Calm Calm - N/A   Overcast
8:54 PM 42.1 °F - 33.1 °F 70% 30.26 in 10.0 mi Calm Calm - N/A   Overcast
9:54 PM 41.0 °F 38.0 °F 33.1 °F 73% 30.27 in 10.0 mi NW 4.6 mph - N/A   Overcast
10:54 PM 41.0 °F 36.4 °F 30.0 °F 65% 30.28 in 10.0 mi NW 6.9 mph - N/A   Overcast
11:54 PM 41.0 °F 37.1 °F 30.0 °F 65% 30.27 in 10.0 mi NW 5.8 mph - N/A   Overcast